STARLINK-31878, 60031

Orbit data source: Space-Track

STARLINK-31878, 60031 is a payload satellite owned by SpaceX/Seattle (US) in LEO that was launched on Sat, 08 Jun 2024 UTC via an FALCON 9 launch vehicle from the Air Force Eastern Test Range (AFETR). Payload-class satellites include a variety of spacecraft equipped with specific instruments for various scientific and technological missions. These include communications satellites like Starlink; space stations such as the ISS; scientific satellites like the Hubble; Earth observation satellites from companies like Planet Labs, Umbra, and HawkEye 360; GPS; miniature CubeSats for education and research; and military/defense satellites.

Loading next visibility...
Identifier
60031, 2024-111R
Orbit
LEO
Country
Flag of USUS
Related business
Manufacturer
SpaceX/Seattle
Mission
Operational Commercial Communications
Bus & Motor
STARLINK V2M, Unknown motor
Mass
730 kg wet, ~700 kg dry
Launch date (UTC)
2024-06-08 (2 years ago)
Launch vehicle
FALCON 9
Launch site
Air Force Eastern Test Range (AFETR)
Object type
Payload
Rocket body
Debris
Shape & HBR
Box + 2 Pan, 17.7 m
Radar Cross Section
33.884 m², Large (>1 m²)

Expand to show TLE details & history
Last TLE update: 2 days ago

TLE from 2 days ago
0 STARLINK-31878
1 60031U 24111R   26171.43724882  .00001776  00000-0  63677-4 0  9998
2 60031  53.1618 265.7829 0000992  73.7953 286.3158 15.34401389115254
Epoch: 2026-06-20T10:29Z
TLE epoch observation values (Epoch: 2026-06-20T10:29:38.298Z)
Latitude
-0.00006°
Longitude
-160.2786°
Altitude
463.41 km
Speed
7.636 km/s
True Right ascension
17h 43m 07s
True Declination
0° 00' 00"
Sunlit
Object was in full shadow at epoch
Visualization orbit readout
Latitude
Unknown
Longitude
Unknown
Altitude
Unknown
Speed
Unknown
Apparent Right ascension
Unknown
Apparent Declination
Unknown
Sunlit
N/A
Visualization observer readout
Local Sidereal Time
21:29:52
Azimuth
Unknown
Elevation
Unknown
Doppler factor
Unknown
Orbital elements
Apogee altitude
463.634 km
Perigee altitude
462.277 km
Semi-major axis
6,841.093 km
Eccentricity
0.0001
Inclination
53.1618°
RAAN
265.7829°
Arg. of periapsis
73.7953°
True anomaly
286.30489°
Mean anomaly
286.3158°
Eccentric anomaly
286.31035°
Mean motion
3.83579 °/min
Orbital period
93.85 mins
BSTAR
0.000063677
Loading maneuver chart data...
Computing Atmospheric mass density...
Loading historical data...
Loading historical data...
Loading historical data...
Loading historical data...
Loading historical data...
Loading historical data...
Loading historical data...

Documentation

Showing up to 5 results
|